Joplin, MO

12:43 PM CST on December 06, 2019 (GMT -0600)
Joplin Regional

Weather History for KJLN - June, 2019

Change the Weather History Date:

Monday, June 3, 2019

  Actual Average Record
Temperature  
Mean Temperature 73 °F 72 °F  
Max Temperature 82 °F 82 °F 93 °F (2011)
Min Temperature 64 °F 61 °F 45 °F (2013)
Degree Days  
Heating Degree Days 0 0  
Month to date heating degree days 0 2  
Since 1 June heating degree days 0 2  
Since 1 July heating degree days 4415 4071  
Cooling Degree Days 8 7  
Month to date cooling degree days 27 21  
Year to date cooling degree days 180 201  
Since 1 June cooling degree days 27 21  
Growing Degree Days 23 (Base 50)    
Moisture  
Dew Point 65 °F    
Average Humidity 81    
Maximum Humidity 100    
Minimum Humidity 69    
Precipitation  
Precipitation 0.32 in 0.20 in 2.29 in (2001)
Month to date precipitation 0.34 0.61  
Year to date precipitation 28.49 18.56  
Sea Level Pressure  
Sea Level Pressure 29.97 in    
Wind  
Wind Speed 7 mph ()    
Max Wind Speed 23 mph    
Max Gust Speed 32 mph    
Visibility 9.1 miles    
Events Rain , Thunderstorm    
T = Trace of Precipitation, MM = Missing Value Source: Averaged Metar Reports

Daily Weather History Graph

Daily Weather History Graph

Search for Another Location

Airport or City:

Astronomy

Jun. 03, 2019 Rise Set
Actual Time 5:58 AM CDT 8:33 PM CDT
Civil Twilight 5:28 AM CDT 9:04 PM CDT
Nautical Twilight 4:50 AM CDT 9:42 PM CDT
Astronomical Twilight 4:08 AM CDT 10:24 PM CDT
Moon 6:18 AM CDT (6/3) 9:00 PM CDT (6/3)
Length of Visible Light 15h 35m
Length of Day
14h 34m
New Moon, 0% of the Moon is Illuminated
Jun 3
New Moon
Jun 10
First Quarter
Jun 17
Full
Jun 25
Last Quarter
Jul 2
New

Hourly Weather History & Observations

Time (CDT) Temp. Heat Index Dew Point Humidity Pressure Visibility Wind Dir Wind Speed Gust Speed Precip Events Conditions
12:53 AM 68.0 °F - 60.1 °F 76% 29.97 in 10.0 mi East 4.6 mph - N/A   Clear
1:53 AM 66.9 °F - 60.1 °F 79% 29.98 in 10.0 mi East 5.8 mph - N/A   Clear
2:53 AM 66.0 °F - 59.0 °F 78% 29.97 in 10.0 mi East 5.8 mph - N/A   Clear
3:53 AM 64.9 °F - 60.1 °F 84% 29.96 in 10.0 mi East 6.9 mph - N/A   Clear
4:53 AM 64.9 °F - 59.0 °F 81% 29.97 in 10.0 mi ESE 6.9 mph - N/A   Clear
5:53 AM 64.9 °F - 59.0 °F 81% 29.98 in 10.0 mi ESE 6.9 mph - N/A   Clear
6:53 AM 66.9 °F - 60.1 °F 79% 29.99 in 10.0 mi SE 9.2 mph - N/A   Clear
7:53 AM 69.1 °F - 61.0 °F 75% 29.98 in 10.0 mi ESE 11.5 mph - N/A   Clear
8:53 AM 71.1 °F - 62.1 °F 73% 30.00 in 10.0 mi SE 8.1 mph - N/A   Clear
9:53 AM 73.0 °F - 64.0 °F 73% 30.01 in 10.0 mi SSE 10.4 mph - N/A   Clear
10:53 AM 78.1 °F - 68.0 °F 71% 30.00 in 10.0 mi SSE 8.1 mph - N/A   Clear
11:53 AM 80.1 °F 82.9 °F 69.1 °F 69% 30.00 in 10.0 mi SSE 10.4 mph - N/A   Clear
12:53 PM 80.1 °F 82.9 °F 69.1 °F 69% 29.99 in 10.0 mi SE 9.2 mph - N/A   Clear
1:53 PM 81.0 °F 84.9 °F 71.1 °F 72% 29.96 in 10.0 mi SSE 9.2 mph - N/A   Scattered Clouds
2:53 PM 80.1 °F 83.2 °F 70.0 °F 71% 29.94 in 10.0 mi ESE 8.1 mph - N/A   Partly Cloudy
3:53 PM 78.1 °F - 70.0 °F 76% 29.94 in 10.0 mi SE 5.8 mph - N/A   Scattered Clouds
4:08 PM 77.0 °F - 69.1 °F 76% 29.97 in 10.0 mi SE 6.9 mph - N/A Thunderstorm Thunderstorm
4:51 PM 69.8 °F - 64.4 °F 83% 29.98 in 3.0 mi South 17.3 mph 25.3 mph 0.03 in Rain , Thunderstorm Heavy Thunderstorms and Rain
4:53 PM 68.0 °F - 64.9 °F 90% 29.96 in 2.0 mi South 16.1 mph 25.3 mph 0.06 in Rain , Thunderstorm Heavy Thunderstorms and Rain
5:11 PM 69.1 °F - 66.0 °F 90% 29.98 in 4.0 mi SSE 13.8 mph - 0.26 in Rain Light Rain
5:53 PM 69.1 °F - 66.0 °F 90% 29.95 in 10.0 mi SE 5.8 mph - 0.26 in   Overcast
6:53 PM 70.0 °F - 66.9 °F 90% 29.94 in 10.0 mi SSE 5.8 mph - N/A   Mostly Cloudy
7:53 PM 69.1 °F - 66.0 °F 90% 29.94 in 10.0 mi SSE 9.2 mph - N/A   Scattered Clouds
8:53 PM 68.0 °F - 64.9 °F 90% 29.93 in 10.0 mi South 9.2 mph - N/A   Clear
9:53 PM 68.0 °F - 64.9 °F 90% 29.95 in 10.0 mi South 5.8 mph - N/A   Clear
10:53 PM 66.0 °F - 64.9 °F 96% 29.96 in 10.0 mi ENE 4.6 mph - N/A   Clear
11:53 PM 64.9 °F - 64.0 °F 97% 29.95 in 7.0 mi SSE 3.5 mph - N/A   Clear